This demonstration page uses our WeatherBlox Daily Observations layout. Learn more.

Left ArrowRight Arrow

38.20091, -84.87328

Hourly Observations for July 22, 2021

Temp ( °F °C ) Dew Point ( °F °C ) Humidity (%) Winds ( mph kmh ) Pressure ( in mb ) Visibility ( mi km ) Precip ( " mm )
12:53 am 00:53 Clear 73 22.8 65 18.3 76 76 NNE 5 7 30.13 1020 9 14 0.00 0.00
1:53 am 01:53 Clear 71 21.7 64 17.8 79 79 NE 5 7 30.13 1020 9 14 0.00 0.00
2:53 am 02:53 Clear 70 21.1 64 17.8 82 82 NE 6 9 30.13 1020 8 13 0.00 0.00
3:53 am 03:53 Clear 68 20 63 17.2 84 84 ENE 5 7 30.13 1020 9 14 0.00 0.00
4:53 am 04:53 Clear 68 20 62 16.7 81 81 Calm 30.14 1021 9 14 0.00 0.00
5:53 am 05:53 Clear 63 17.2 62 16.7 97 97 Calm 30.15 1021 7 11 0.00 0.00
6:53 am 06:53 Sunny with Mist and Fog 65 18.3 61 16.1 87 87 Calm 30.16 1022 6 10 0.00 0.00
7:53 am 07:53 Sunny 67 19.4 62 16.7 84 84 NE 3 6 30.18 1022 7 11 0.00 0.00
8:34 am 08:34 Partly Cloudy with Mist and Fog N/A N/A N/A undefined N/A N/A 3 4 0.00 0.00
8:43 am 08:43 undefined N/A N/A N/A undefined N/A N/A 10 16 0.00 0.00
8:53 am 08:53 Sunny 70 21 N/A N/A undefined N/A 30.19 1022 10 16 0.00 0.00
9:53 am 09:53 Sunny 73 22.8 62 16.7 69 69 E 6 9 30.21 1023 10 16 0.00 0.00
10:53 am 10:53 Sunny 76 24.4 59 15 56 56 NE 8 13 30.20 1023 10 16 0.00 0.00
11:53 am 11:53 Sunny 79 26.1 61 16.1 54 54 VRB 6 9 30.21 1023 10 16 0.00 0.00
12:53 pm 12:53 Sunny 79 26.1 60 15.6 52 52 VRB 5 7 30.20 1023 10 16 0.00 0.00
1:53 pm 13:53 Mostly Sunny 81 27.2 61 16.1 51 51 undefined N/A 30.19 1022 10 16 0.00 0.00
2:53 pm 14:53 Sunny 83 28.3 60 15.6 46 46 NNE 8 13 30.17 1022 10 16 0.00 0.00
3:53 pm 15:53 Mostly Sunny 83 28.3 61 16.1 48 48 VRB 3 6 30.16 1021 10 16 0.00 0.00
4:53 pm 16:53 Sunny 84 28.9 62 16.7 48 48 VRB 3 6 30.16 1021 10 16 0.00 0.00
5:53 pm 17:53 Partly Cloudy 83 28.3 62 16.7 49 49 ENE 6 9 30.16 1021 10 16 0.00 0.00
6:53 pm 18:53 Mostly Cloudy 82 27.8 62 16.7 51 51 E 5 7 30.15 1021 10 16 0.00 0.00
7:53 pm 19:53 Sunny 81 27.2 62 16.7 53 53 N 3 6 30.16 1021 10 16 0.00 0.00
8:53 pm 20:53 Sunny 77 25 63 17.2 62 62 N 3 6 30.16 1021 10 16 0.00 0.00
9:53 pm 21:53 Clear 73 22.8 64 17.8 74 74 Calm 30.17 1022 10 16 0.00 0.00
10:53 pm 22:53 Clear 70 21.1 64 17.8 82 82 Calm 30.18 1022 10 16 0.00 0.00
11:53 pm 23:53 Clear 66 18.9 62 16.7 87 87 Calm 30.17 1022 10 16 0.00 0.00

Powered by AerisWeather